Location: Newark
(23.3970°S, 47.6010°W)
Time: 08:05:17
(UTC+00:00)

Tiros 1 despin weight - Pass Details

Date: 22 February 2020
Orbit: 593 x 642 km, 48.2° (Epoch: 04 April)

Event Time Altitude Azimuth Distance (km) Brightness Sun altitude
Rises 15:44:26 0° 265° (W) 2,915 ? 76.0°
Reaches altitude 10° 15:48:18 10° 232° (SW) 2,025 ? 75.6°
Maximum altitude 15:50:00 12° 211° (SSW) 1,914 ? 75.4°
Drops below altitude 10° 15:51:44 10° 189° (S) 2,038 ? 75.3°
Sets 15:55:40 0° 157° (SSE) 2,960 ? 74.8°
